Weather History for KLEB - January, 2013

Change the Weather History Date:

Tuesday, January 22, 2013

  Actual Average Record
Temperature  
Mean Temperature 10 °F -  
Max Temperature 19 °F 29 °F 53 °F (1957)
Min Temperature 0 °F 6 °F -23 °F (1961)
Degree Days  
Heating Degree Days 56    
Moisture  
Dew Point 5 °F    
Average Humidity 68    
Maximum Humidity 86    
Minimum Humidity 38    
Precipitation  
Precipitation 0.02 in - - ()
Sea Level Pressure  
Sea Level Pressure 29.87 in    
Wind  
Wind Speed 4 mph (NW)    
Max Wind Speed 15 mph    
Max Gust Speed 25 mph    
Visibility 7 miles    
Events Snow    
Averages and records for this station are not official NWS values.
T = Trace of Precipitation, MM = Missing Value Source: NWS Daily Summary

Daily Weather History Graph

Daily Weather History Graph

Search for Another Location

Airport or City:

Trip Planner

Search our weather history database for the weather conditions in past years. The results will help you decide how hot, cold, wet, or windy it might be!

Date:

Astronomy

Jan. 22, 2013 Rise Set
Actual Time 7:14 AM EST 4:47 PM EST
Civil Twilight 6:43 AM EST 5:18 PM EST
Nautical Twilight 6:08 AM EST 5:53 PM EST
Astronomical Twilight 5:34 AM EST 6:27 PM EST
Moon 1:06 PM EST (1/22) 3:35 AM EST (1/22)
Length of Visible Light 10h 34m
Length of Day
9h 32m
Waxing Gibbous, 82% of the Moon is Illuminated
Jan 22
Waxing Gibbous
Jan 26
Full
Feb 3
Last Quarter
Feb 10
New
Feb 17
First Quarter

Hourly Weather History & Observations

Time (EST) Temp. Windchill Dew Point Humidity Pressure Visibility Wind Dir Wind Speed Gust Speed Precip Events Conditions
12:53 AM 18.0 °F - 12.9 °F 81% 29.78 in 6.0 mi Calm Calm - 0.00 in Snow Light Snow
1:14 AM 17.6 °F 12.3 °F 12.2 °F 79% 29.74 in 2.5 mi North 3.5 mph - 0.00 in Snow Light Snow
1:29 AM 17.6 °F 12.3 °F 12.2 °F 79% 29.74 in 1.8 mi North 3.5 mph - 0.00 in Snow Light Snow
1:51 AM 17.6 °F 10.7 °F 12.2 °F 79% 29.74 in 1.2 mi North 4.6 mph - 0.01 in Snow Light Snow
1:53 AM 17.1 °F 10.0 °F 12.9 °F 84% 29.78 in 1.2 mi North 4.6 mph - 0.01 in Snow Light Snow
2:15 AM 17.6 °F 12.3 °F 12.2 °F 79% 29.74 in 2.0 mi North 3.5 mph - 0.01 in Snow Light Snow
2:29 AM 17.6 °F 10.7 °F 12.2 °F 79% 29.74 in 3.0 mi NNE 4.6 mph - 0.01 in Snow Light Snow
2:53 AM 14.0 °F - 10.0 °F 84% 29.78 in 7.0 mi Calm Calm - 0.01 in   Overcast
3:45 AM 15.8 °F 8.6 °F 10.4 °F 79% 29.75 in 10.0 mi North 4.6 mph - N/A   Overcast
3:53 AM 15.1 °F 7.7 °F 10.9 °F 84% 29.79 in 10.0 mi North 4.6 mph - N/A   Overcast
4:15 AM 15.8 °F - 10.4 °F 79% 29.75 in 1.8 mi Calm Calm - 0.00 in Snow Light Snow
4:28 AM 15.8 °F 8.6 °F 10.4 °F 79% 29.76 in 3.0 mi NNW 4.6 mph - 0.00 in Snow Light Snow
4:53 AM 14.0 °F - 9.0 °F 80% 29.80 in 5.0 mi Calm Calm - 0.00 in Snow Light Snow
5:15 AM 14.0 °F - 10.4 °F 86% 29.76 in 7.0 mi Calm Calm - 0.00 in   Overcast
5:53 AM 12.0 °F - 7.0 °F 80% 29.82 in 10.0 mi Calm Calm - 0.00 in   Overcast
6:53 AM 12.9 °F 6.9 °F 6.1 °F 74% 29.84 in 10.0 mi NNW 3.5 mph - N/A   Overcast
7:53 AM 10.0 °F - 3.9 °F 76% 29.87 in 10.0 mi Calm Calm - N/A   Mostly Cloudy
8:53 AM 12.0 °F 5.9 °F 7.0 °F 80% 29.88 in 10.0 mi SSE 3.5 mph - N/A   Clear
9:53 AM 17.1 °F 5.8 °F 3.9 °F 56% 29.88 in 10.0 mi WSW 9.2 mph 17.3 mph N/A   Clear
10:53 AM 19.0 °F 8.2 °F 3.9 °F 52% 29.88 in 10.0 mi WSW 9.2 mph - N/A   Clear
11:53 AM 19.0 °F 5.6 °F 1.0 °F 46% 29.87 in 9.0 mi West 13.8 mph 25.3 mph N/A   Clear
12:53 PM 19.0 °F 5.0 °F -0.9 °F 42% 29.86 in 7.0 mi WNW 15.0 mph 24.2 mph N/A   Clear
1:53 PM 17.1 °F 10.0 °F 3.9 °F 56% 29.88 in 7.0 mi West 4.6 mph - 0.00 in   Overcast
2:07 PM 17.6 °F 10.7 °F 5.0 °F 58% 29.84 in 9.0 mi West 4.6 mph - 0.00 in   Overcast
2:53 PM 18.0 °F 7.7 °F -4.0 °F 38% 29.89 in 10.0 mi West 8.1 mph 21.9 mph 0.00 in   Mostly Cloudy
3:53 PM 16.0 °F 6.3 °F 3.9 °F 59% 29.92 in 7.0 mi WNW 6.9 mph 18.4 mph N/A   Mostly Cloudy
4:53 PM 16.0 °F 2.9 °F -0.0 °F 49% 29.96 in 10.0 mi NW 11.5 mph 18.4 mph N/A   Mostly Cloudy
5:14 PM 14.0 °F -0.2 °F 5.0 °F 67% 29.93 in 1.5 mi NW 12.7 mph - 0.00 in Snow Light Snow
5:24 PM 12.2 °F -0.2 °F 3.2 °F 67% 29.94 in 4.0 mi NNW 9.2 mph 21.9 mph 0.00 in Snow Light Snow
5:35 PM 12.2 °F -0.2 °F 1.4 °F 62% 29.94 in 4.0 mi NNW 9.2 mph 17.3 mph 0.00 in   Haze
5:53 PM 12.0 °F 4.1 °F 1.0 °F 61% 30.01 in 10.0 mi NW 4.6 mph - 0.00 in   Scattered Clouds
6:53 PM 12.0 °F 2.7 °F -2.9 °F 51% 30.03 in 10.0 mi West 5.8 mph - N/A   Overcast
7:53 PM 10.0 °F 3.6 °F -2.0 °F 58% 30.04 in 10.0 mi NW 3.5 mph - N/A   Partly Cloudy
8:53 PM 9.0 °F 2.4 °F -4.0 °F 56% 30.05 in 10.0 mi West 3.5 mph - N/A   Clear
9:53 PM 8.1 °F - -7.1 °F 50% 30.05 in 10.0 mi Calm Calm - N/A   Clear
10:53 PM -0.0 °F - -7.1 °F 72% 30.07 in 10.0 mi Calm Calm - N/A   Clear
11:53 PM 1.0 °F - -5.1 °F 75% 30.07 in 10.0 mi Calm Calm - N/A   Scattered Clouds